Find Shiyan 20B

NORAD ID: 54700 Int'l Des: 2022-169 Owner: SAST Country: CN operational
LEOCIRCULAR

当前视图

正在加载3D地球...

About Shiyan 20B

Shiyan 20B (NORAD 54700) is a satellite launched Dec 12, 2022 by SAST of CN. It operates in LEO, CIRCULAR orbit with a mass of 500.00 kg.

即将过境

Passes for default location (London). Set your location on the main map for personalized predictions.

高度历史

Loading altitude history...

两行轨道根数

1 54700U 22169B 26195.58471211 -.00000057 00000-0 31125-4 0 9997
2 54700 59.9961 149.9664 0007996 244.4463 115.5746 14.29547807187275
Epoch: Jul 14, 2026 • Age: 6 hours

当前状态

高度 808.4 km
远地点 / 近地点 N/A
速度 7.45 km/s
星下点 -52.12°S, 137.86°W
发射日期 Dec 12, 2022
运行时间 3.5 years
类型 other

技术详情

分类 Payload
质量 500.00 kg
干质量 500.00 kg
总质量 500.00 kg
长度 2.50 m
直径 2.50 m
跨度 5.00 m
形状 Box + 2 Pan
制造商 SAST
阶段状态 In Orbit
所有者/国家 SAST/CN

Most Searched